Regional Weather Roundup
Issued by NWS Green Bay, WI

Home | Current Version | Previous Version | Text Only | Print | Product List | Glossary On
Versions: 1 2 3 4 5 6 7 8 9 10 11 12 13 14 15 16 17 18 19 20 21 22 23 24 25 26 27 28 29 30 31 32 33 34 35 36 37 38 39 40 41 42 43 44 45 46 47 48 49 50
000
ASUS43 KGRB 280900
RWRGRB

NORTH-CENTRAL AND NORTHEAST WISCONSIN REGIONAL WEATHER ROUNDUP
NATIONAL WEATHER SERVICE GREEN BAY WI
400 AM CDT SAT MAY 28 2016

WIZ005-009-010>012-018-019-281000-
NORTH CENTRAL WISCONSIN

CITY           SKY/WX    TMP DP  RH WIND       PRES   REMARKS
IRONWOOD       CLOUDY    61  59  94 CALM      29.73S
MANITOWISH WTR NOT AVBL
ARBOR VITAE    NOT AVBL
EAGLE RIVER    NOT AVBL
LAND O LAKES   NOT AVBL
RHINELANDER    CLOUDY    66  64  93 SE3       29.80R
PHILLIPS       NOT AVBL
ANTIGO         NOT AVBL
TOMAHAWK       NOT AVBL
MERRILL        CLOUDY    66  66 100 S3        29.79R FOG
$$

WIZ013-073-281000-
NORTHEAST WISCONSIN

CITY           SKY/WX    TMP DP  RH WIND       PRES   REMARKS
IRON MOUNTAIN  FOG       62  61  96 SE3       29.80S VSB 1/4
MARINETTE      CLOUDY    61  59  94 SE6       29.82R
$$

WIZ017-030-035>037-045-281000-
CENTRAL WISCONSIN

CITY           SKY/WX    TMP DP  RH WIND       PRES   REMARKS
MEDFORD        NOT AVBL
WAUSAU         CLOUDY    69  66  90 S7        29.77R
MOSINEE        NOT AVBL
MARSHFIELD     CLOUDY    68  65  90 S5        29.77S FOG
WISC RAPIDS    CLOUDY    68  65  90 S6        29.78R
STEVENS POINT  NOT AVBL
WAUPACA        NOT AVBL
SHAWANO        NOT AVBL
CLINTONVILLE   NOT AVBL
WAUTOMA        CLOUDY    68  67  96 SE8       29.79S
$$

WIZ038-039-048-051-281000-
FOX VALLEY

CITY           SKY/WX    TMP DP  RH WIND       PRES   REMARKS
NWS GREEN BAY  CLOUDY    68  65  90 S8        29.80R
APPLETON       NOT AVBL
OSHKOSH        LGT RAIN  68  65  90 S12G21    29.80R
FOND DU LAC    LGT RAIN  68  65  90 S13       29.81S
$$

WIZ022-050-052-281000-
EAST CENTRAL WISCONSIN

CITY           SKY/WX    TMP DP  RH WIND       PRES   REMARKS
EPHRAIM        NOT AVBL
STURGEON BAY   NOT AVBL
MANITOWOC      NOT AVBL
SHEBOYGAN      CLOUDY    64  62  93 S7        29.83S
$$

LMZ563-521-522-541>543-281000-
LAKESHORE

STATION/POSITION TIME  TEMP    WIND        PRES    VSBY  WAVE
                       AIR SEA DIR/SP/G                  HT/PER
                 (UTC) (F)     (DEG/KT/KT) (MB)    (MI)  (FT/S)
SHEBOYGAN LKSHOR 0800   58     180/ 18/ 20 1010.4R
KEWAUNEE LKSHORE 0800   53     170/  7/  9 1009.3R
ALGOMA MARINA    0817             CALM       N/A
NORTHPORT PIER   0800   58     150/  9/ 14 1009.8F
N MID LAKE BUOY  0750   54 46  170/ 12/ 14 1010.3F         1
CHAMBERS ISLAND  0800   60     120/  4/  7 1009.5
MENOMINEE LKSHOR 0800   58     140/  7/  8 1008.2F
$$




USA.gov is the U.S. government's official web portal to all federal, state and local government web resources and services.